STARLINK-34791, 65891

Orbit data source: Space-Track

STARLINK-34791, 65891 is a payload satellite owned by SpaceX/Seattle (US) in LEO that was launched on Tue, 07 Oct 2025 UTC via an FALCON 9 launch vehicle from the Air Force Eastern Test Range (AFETR). Payload-class satellites include a variety of spacecraft equipped with specific instruments for various scientific and technological missions. These include communications satellites like Starlink; space stations such as the ISS; scientific satellites like the Hubble; Earth observation satellites from companies like Planet Labs, Umbra, and HawkEye 360; GPS; miniature CubeSats for education and research; and military/defense satellites.

Loading next visibility...
Identifier
65891, 2025-224K
Orbit
LEO
Country
Flag of USUS
Related business
Manufacturer
SpaceX/Seattle
Mission
Operational spacecraft
Bus & Motor
STARLINK V2MO, Unknown motor
Mass
575 kg wet, ~530 kg dry
Launch date (UTC)
2025-10-07 (2 months ago)
Launch vehicle
FALCON 9
Launch site
Air Force Eastern Test Range (AFETR)
Object type
Payload
Rocket body
Debris
Shape & HBR
Unknown shape, 17.7 m
Radar Cross Section
RCS unknown

Expand to show TLE details & history
Last TLE update: 22 hours ago

TLE from 22 hours ago
0 STARLINK-34791
1 65891U 25224K   25340.31626548  .00052008  00000-0  17537-2 0  9993
2 65891  53.1612  85.3926 0001267  69.0257 291.0879 15.30239142 10576
Epoch: 2025-12-06T07:35Z
TLE epoch observation values (Epoch: 2025-12-06T07:35:25.337Z)
Latitude
-0.00004°
Longitude
-103.80876°
Altitude
475.686 km
Speed
7.629 km/s
True Right ascension
05h 41m 34s
True Declination
0° 00' 00"
Sunlit
Object was in full shadow at epoch
Visualization orbit readout
Latitude
Unknown
Longitude
Unknown
Altitude
Unknown
Speed
Unknown
Apparent Right ascension
Unknown
Apparent Declination
Unknown
Sunlit
N/A
Visualization observer readout
Local Sidereal Time
03:15:06
Azimuth
Unknown
Elevation
Unknown
Doppler factor
Unknown
Orbital elements
Apogee altitude
476.223 km
Perigee altitude
474.486 km
Semi-major axis
6,853.491 km
Eccentricity
0.00013
Inclination
53.1612°
RAAN
85.3926°
Arg. of periapsis
69.0257°
True anomaly
291.07435°
Mean anomaly
291.0879°
Eccentric anomaly
291.08113°
Mean motion
3.82539 °/min
Orbital period
94.11 mins
BSTAR
0.0017537
Loading maneuver chart data...
Computing Atmospheric mass density...
Loading historical data...
Loading historical data...
Loading historical data...
Loading historical data...
Loading historical data...
Loading historical data...
Loading historical data...

Documentation

Showing up to 5 results
|